Time,TemperatureF,DewpointF,PressureIn,WindDirection,WindDirectionDegrees,WindSpeedMPH,WindSpeedGustMPH,Humidity,HourlyPrecipIn,Conditions,Clouds,dailyrainin,SoftwareType,DateUTC
2013-08-20 00:00:00,74.5,71.6,30.05,East,90,8.0,12.0,91,0.00,,,0.00,meteohub,2013-08-20 05:00:00,
2013-08-20 00:05:00,74.5,71.6,30.04,East,91,6.0,10.0,91,0.00,,,0.00,meteohub,2013-08-20 05:05:00,
2013-08-20 00:10:00,74.5,71.6,30.04,ESE,102,2.0,10.0,91,0.00,,,0.00,meteohub,2013-08-20 05:10:00,
2013-08-20 00:15:00,74.5,71.6,30.04,East,96,1.0,10.0,91,0.00,,,0.00,meteohub,2013-08-20 05:15:00,
2013-08-20 00:20:00,74.3,71.4,30.04,East,86,3.0,9.0,91,0.00,,,0.00,meteohub,2013-08-20 05:20:00,
2013-08-20 00:25:00,74.1,71.2,30.04,East,91,3.0,9.0,91,0.00,,,0.00,meteohub,2013-08-20 05:25:00,
2013-08-20 00:30:00,74.1,71.6,30.04,East,80,2.0,8.0,92,0.00,,,0.00,meteohub,2013-08-20 05:30:00,
2013-08-20 00:36:00,73.9,71.4,30.04,ESE,111,2.0,8.0,92,0.00,,,0.00,meteohub,2013-08-20 05:36:00,
2013-08-20 00:41:00,73.9,71.4,30.03,ESE,102,2.0,9.0,92,0.00,,,0.00,meteohub,2013-08-20 05:41:00,
2013-08-20 00:46:00,73.8,71.2,30.03,ENE,58,2.0,9.0,92,0.00,,,0.00,meteohub,2013-08-20 05:46:00,
2013-08-20 00:51:00,73.8,71.2,30.03,East,92,2.0,9.0,92,0.00,,,0.00,meteohub,2013-08-20 05:51:00,
2013-08-20 00:56:00,73.8,71.2,30.03,ESE,104,0.0,8.0,92,0.00,,,0.00,meteohub,2013-08-20 05:56:00,
2013-08-20 01:01:00,73.6,71.1,30.02,East,96,1.0,5.0,92,0.00,,,0.00,meteohub,2013-08-20 06:01:00,
2013-08-20 01:06:00,73.4,71.2,30.02,East,96,0.0,5.0,93,0.00,,,0.00,meteohub,2013-08-20 06:06:00,
2013-08-20 01:11:00,73.2,71.1,30.02,East,96,0.0,2.0,93,0.00,,,0.00,meteohub,2013-08-20 06:11:00,
2013-08-20 01:16:00,73.2,71.1,30.02,East,96,0.0,2.0,93,0.00,,,0.00,meteohub,2013-08-20 06:16:00,
2013-08-20 01:22:00,73.2,71.1,30.01,East,97,1.0,2.0,93,0.00,,,0.00,meteohub,2013-08-20 06:22:00,
2013-08-20 01:27:00,73.2,70.7,30.01,East,96,2.0,3.0,92,0.00,,,0.00,meteohub,2013-08-20 06:27:00,
2013-08-20 01:32:00,73.2,70.7,30.01,East,99,0.0,5.0,92,0.00,,,0.00,meteohub,2013-08-20 06:32:00,
2013-08-20 01:37:00,73.2,71.1,30.01,East,87,3.0,5.0,93,0.00,,,0.00,meteohub,2013-08-20 06:37:00,
2013-08-20 01:42:00,73.2,71.1,30.01,East,96,5.0,5.0,93,0.00,,,0.00,meteohub,2013-08-20 06:42:00,
2013-08-20 01:47:00,73.2,71.1,30.02,ESE,104,0.0,5.0,93,0.00,,,0.00,meteohub,2013-08-20 06:47:00,
2013-08-20 01:52:00,73.2,71.1,30.01,ESE,105,0.0,5.0,93,0.00,,,0.00,meteohub,2013-08-20 06:52:00,
2013-08-20 01:57:00,73.2,71.1,30.01,ESE,114,2.0,5.0,93,0.00,,,0.00,meteohub,2013-08-20 06:57:00,
2013-08-20 02:02:00,73.2,71.1,30.01,ESE,110,1.0,5.0,93,0.00,,,0.00,meteohub,2013-08-20 07:02:00,
2013-08-20 02:07:00,73.2,71.1,30.02,East,100,2.0,5.0,93,0.00,,,0.00,meteohub,2013-08-20 07:07:00,
2013-08-20 02:12:00,73.2,71.1,30.02,SE,130,2.0,5.0,93,0.00,,,0.00,meteohub,2013-08-20 07:12:00,
2013-08-20 02:17:00,73.2,71.1,30.02,East,83,3.0,5.0,93,0.00,,,0.00,meteohub,2013-08-20 07:17:00,
2013-08-20 02:22:00,73.2,71.1,30.02,ESE,106,2.0,5.0,93,0.00,,,0.00,meteohub,2013-08-20 07:22:00,
2013-08-20 02:27:00,73.0,70.9,30.02,East,100,3.0,5.0,93,0.00,,,0.00,meteohub,2013-08-20 07:27:00,
2013-08-20 02:32:00,73.0,70.9,30.02,ESE,110,2.0,7.0,93,0.00,,,0.00,meteohub,2013-08-20 07:32:00,
2013-08-20 02:37:00,73.0,70.9,30.02,SE,125,2.0,7.0,93,0.00,,,0.00,meteohub,2013-08-20 07:37:00,
2013-08-20 02:42:00,73.0,70.9,30.03,ESE,104,2.0,7.0,93,0.00,,,0.00,meteohub,2013-08-20 07:42:00,
2013-08-20 02:47:00,73.0,70.9,30.02,SSE,151,1.0,6.0,93,0.00,,,0.00,meteohub,2013-08-20 07:47:00,
2013-08-20 02:52:00,73.0,70.9,30.02,East,98,1.0,5.0,93,0.00,,,0.00,meteohub,2013-08-20 07:52:00,
2013-08-20 02:57:00,73.0,70.9,30.02,SE,135,2.0,5.0,93,0.00,,,0.00,meteohub,2013-08-20 07:57:00,
2013-08-20 03:02:00,72.9,71.1,30.02,SE,135,1.0,3.0,94,0.00,,,0.00,meteohub,2013-08-20 08:02:00,
2013-08-20 03:07:00,72.9,71.1,30.02,SE,131,0.0,3.0,94,0.00,,,0.00,meteohub,2013-08-20 08:07:00,
2013-08-20 03:12:00,72.9,71.1,30.02,SE,125,1.0,3.0,94,0.00,,,0.00,meteohub,2013-08-20 08:12:00,
2013-08-20 03:17:00,72.9,71.1,30.02,East,89,2.0,2.0,94,0.00,,,0.00,meteohub,2013-08-20 08:17:00,
2013-08-20 03:22:00,72.7,70.9,30.02,East,92,1.0,5.0,94,0.00,,,0.00,meteohub,2013-08-20 08:22:00,
2013-08-20 03:27:00,72.7,70.9,30.02,East,85,3.0,5.0,94,0.00,,,0.00,meteohub,2013-08-20 08:27:00,
2013-08-20 03:32:00,72.5,70.7,30.02,East,89,1.0,5.0,94,0.00,,,0.00,meteohub,2013-08-20 08:32:00,
2013-08-20 03:37:00,72.3,70.5,30.01,East,99,1.0,5.0,94,0.00,,,0.00,meteohub,2013-08-20 08:37:00,
2013-08-20 03:42:00,72.3,70.5,30.02,East,98,1.0,5.0,94,0.00,,,0.00,meteohub,2013-08-20 08:42:00,
2013-08-20 03:47:00,72.3,70.5,30.01,East,98,0.0,3.0,94,0.00,,,0.00,meteohub,2013-08-20 08:47:00,
2013-08-20 03:52:00,72.1,70.3,30.01,East,98,0.0,3.0,94,0.00,,,0.00,meteohub,2013-08-20 08:52:00,
2013-08-20 03:57:00,72.1,70.3,30.01,East,98,0.0,3.0,94,0.00,,,0.00,meteohub,2013-08-20 08:57:00,
2013-08-20 04:02:00,72.1,70.3,30.01,East,98,0.0,2.0,94,0.00,,,0.00,meteohub,2013-08-20 09:02:00,
2013-08-20 04:07:00,72.1,70.3,30.01,East,98,0.0,2.0,94,0.00,,,0.00,meteohub,2013-08-20 09:07:00,
2013-08-20 04:12:00,72.0,70.2,30.01,East,98,0.0,1.0,94,0.00,,,0.00,meteohub,2013-08-20 09:12:00,
2013-08-20 04:17:00,72.0,70.5,30.01,East,98,0.0,1.0,95,0.00,,,0.00,meteohub,2013-08-20 09:17:00,
2013-08-20 04:22:00,72.0,70.5,30.01,East,98,0.0,1.0,95,0.00,,,0.00,meteohub,2013-08-20 09:22:00,
2013-08-20 04:27:00,72.0,70.5,30.01,East,98,0.0,1.0,95,0.00,,,0.00,meteohub,2013-08-20 09:27:00,
2013-08-20 04:32:00,71.8,70.3,30.01,East,98,0.0,1.0,95,0.00,,,0.00,meteohub,2013-08-20 09:32:00,
2013-08-20 04:37:00,71.8,70.3,30.01,East,98,0.0,2.0,95,0.00,,,0.00,meteohub,2013-08-20 09:37:00,
2013-08-20 04:42:00,71.8,70.3,30.01,East,98,0.0,2.0,95,0.00,,,0.00,meteohub,2013-08-20 09:42:00,
2013-08-20 04:47:00,71.8,70.3,30.01,East,98,0.0,2.0,95,0.00,,,0.00,meteohub,2013-08-20 09:47:00,
2013-08-20 04:52:00,71.6,70.2,30.01,East,98,0.0,0.0,95,0.00,,,0.00,meteohub,2013-08-20 09:52:00,
2013-08-20 04:57:00,71.4,70.0,30.00,East,98,0.0,1.0,95,0.00,,,0.00,meteohub,2013-08-20 09:57:00,
2013-08-20 05:02:00,71.4,70.0,30.00,East,98,0.0,1.0,95,0.00,,,0.00,meteohub,2013-08-20 10:02:00,
2013-08-20 05:07:00,71.4,70.0,30.00,East,98,0.0,1.0,95,0.00,,,0.00,meteohub,2013-08-20 10:07:00,
2013-08-20 05:12:00,71.4,70.0,30.00,East,98,1.0,1.0,95,0.00,,,0.00,meteohub,2013-08-20 10:12:00,
2013-08-20 05:17:00,71.4,70.0,30.00,East,90,1.0,2.0,95,0.00,,,0.00,meteohub,2013-08-20 10:17:00,
2013-08-20 05:22:00,71.4,70.0,30.01,East,90,0.0,3.0,95,0.00,,,0.00,meteohub,2013-08-20 10:22:00,
2013-08-20 05:27:00,71.4,70.0,30.00,East,79,1.0,3.0,95,0.00,,,0.00,meteohub,2013-08-20 10:27:00,
2013-08-20 05:32:00,71.4,70.0,30.00,East,79,0.0,2.0,95,0.00,,,0.00,meteohub,2013-08-20 10:32:00,
2013-08-20 05:37:00,71.4,70.0,30.01,East,91,1.0,2.0,95,0.00,,,0.00,meteohub,2013-08-20 10:37:00,
2013-08-20 05:42:00,71.4,70.0,30.01,East,91,1.0,3.0,95,0.00,,,0.00,meteohub,2013-08-20 10:42:00,
2013-08-20 05:47:00,71.2,69.8,30.00,East,91,1.0,3.0,95,0.00,,,0.00,meteohub,2013-08-20 10:47:00,
2013-08-20 05:52:00,71.2,69.8,30.00,East,91,0.0,2.0,95,0.00,,,0.00,meteohub,2013-08-20 10:52:00,
2013-08-20 05:57:00,71.2,70.0,30.01,East,95,1.0,3.0,96,0.00,,,0.00,meteohub,2013-08-20 10:57:00,
2013-08-20 06:02:00,71.4,70.2,30.01,East,80,1.0,3.0,96,0.00,,,0.00,meteohub,2013-08-20 11:02:00,
2013-08-20 06:07:00,71.4,70.0,30.01,East,80,0.0,3.0,95,0.00,,,0.00,meteohub,2013-08-20 11:07:00,
2013-08-20 06:12:00,71.2,69.8,30.01,East,80,0.0,2.0,95,0.00,,,0.00,meteohub,2013-08-20 11:12:00,
2013-08-20 06:17:00,71.2,70.0,30.01,East,80,0.0,2.0,96,0.00,,,0.00,meteohub,2013-08-20 11:17:00,
2013-08-20 06:22:00,71.1,69.8,30.01,East,80,0.0,1.0,96,0.00,,,0.00,meteohub,2013-08-20 11:22:00,
2013-08-20 06:27:00,71.1,69.8,30.02,East,80,0.0,1.0,96,0.00,,,0.00,meteohub,2013-08-20 11:27:00,
2013-08-20 06:32:00,71.1,69.8,30.02,East,80,0.0,1.0,96,0.00,,,0.00,meteohub,2013-08-20 11:32:00,
2013-08-20 06:37:00,71.1,69.8,30.03,East,81,0.0,1.0,96,0.00,,,0.00,meteohub,2013-08-20 11:37:00,
2013-08-20 06:42:00,71.1,69.8,30.03,East,81,0.0,1.0,96,0.00,,,0.00,meteohub,2013-08-20 11:42:00,
2013-08-20 06:47:00,71.1,69.8,30.03,East,81,0.0,1.0,96,0.00,,,0.00,meteohub,2013-08-20 11:47:00,
2013-08-20 06:52:00,71.1,69.8,30.03,East,81,0.0,0.0,96,0.00,,,0.00,meteohub,2013-08-20 11:52:00,
2013-08-20 06:57:00,71.2,70.0,30.04,East,81,1.0,0.0,96,0.00,,,0.00,meteohub,2013-08-20 11:57:00,
2013-08-20 07:02:00,71.2,70.0,30.03,ESE,110,1.0,2.0,96,0.00,,,0.00,meteohub,2013-08-20 12:02:00,
2013-08-20 07:07:00,71.4,70.2,30.04,East,99,2.0,2.0,96,0.00,,,0.00,meteohub,2013-08-20 12:07:00,
2013-08-20 07:12:00,71.4,70.2,30.03,East,91,2.0,5.0,96,0.00,,,0.00,meteohub,2013-08-20 12:12:00,
2013-08-20 07:17:00,71.8,70.5,30.04,ESE,104,2.0,5.0,96,0.00,,,0.00,meteohub,2013-08-20 12:17:00,
2013-08-20 07:22:00,72.0,70.7,30.04,East,82,2.0,5.0,96,0.00,,,0.00,meteohub,2013-08-20 12:22:00,
2013-08-20 07:27:00,72.1,70.7,30.04,East,80,0.0,5.0,95,0.00,,,0.00,meteohub,2013-08-20 12:27:00,
2013-08-20 07:32:00,72.3,71.1,30.05,East,86,1.0,3.0,96,0.00,,,0.00,meteohub,2013-08-20 12:32:00,
2013-08-20 07:37:00,72.5,71.1,30.05,East,89,5.0,5.0,95,0.00,,,0.00,meteohub,2013-08-20 12:37:00,
2013-08-20 07:42:00,72.7,71.2,30.06,East,94,2.0,5.0,95,0.00,,,0.00,meteohub,2013-08-20 12:42:00,
2013-08-20 07:47:00,72.9,71.4,30.06,East,94,2.0,5.0,95,0.00,,,0.00,meteohub,2013-08-20 12:47:00,
2013-08-20 07:52:00,73.0,71.2,30.06,East,100,3.0,5.0,94,0.00,,,0.00,meteohub,2013-08-20 12:52:00,
2013-08-20 07:57:00,73.4,71.6,30.06,East,86,2.0,7.0,94,0.00,,,0.00,meteohub,2013-08-20 12:57:00,
2013-08-20 08:02:00,73.8,72.0,30.06,ESE,106,2.0,9.0,94,0.00,,,0.00,meteohub,2013-08-20 13:02:00,
2013-08-20 08:07:00,74.1,72.3,30.06,SE,137,3.0,9.0,94,0.00,,,0.00,meteohub,2013-08-20 13:07:00,
2013-08-20 08:12:00,74.3,72.1,30.06,East,89,7.0,9.0,93,0.00,,,0.00,meteohub,2013-08-20 13:12:00,
2013-08-20 08:17:00,74.5,72.3,30.07,East,101,4.0,9.0,93,0.00,,,0.00,meteohub,2013-08-20 13:17:00,
2013-08-20 08:22:00,74.7,72.5,30.07,ENE,70,3.0,9.0,93,0.00,,,0.00,meteohub,2013-08-20 13:22:00,
2013-08-20 08:27:00,74.7,72.5,30.07,East,97,1.0,8.0,93,0.00,,,0.00,meteohub,2013-08-20 13:27:00,
2013-08-20 08:32:00,75.0,72.9,30.08,ESE,113,3.0,8.0,93,0.00,,,0.00,meteohub,2013-08-20 13:32:00,
2013-08-20 08:37:00,75.0,72.5,30.08,East,92,7.0,7.0,92,0.00,,,0.00,meteohub,2013-08-20 13:37:00,
2013-08-20 08:43:00,74.7,72.1,30.08,SE,131,2.0,9.0,92,0.00,,,0.00,meteohub,2013-08-20 13:43:00,
2013-08-20 08:48:00,74.5,72.3,30.08,NNE,31,2.0,9.0,93,0.00,,,0.00,meteohub,2013-08-20 13:48:00,
2013-08-20 08:53:00,74.3,72.1,30.09,ESE,103,4.0,10.0,93,0.00,,,0.00,meteohub,2013-08-20 13:53:00,
2013-08-20 08:58:00,74.1,72.0,30.09,SSE,160,1.0,10.0,93,0.00,,,0.00,meteohub,2013-08-20 13:58:00,
2013-08-20 09:03:00,73.9,71.8,30.09,ENE,78,5.0,10.0,93,0.00,,,0.00,meteohub,2013-08-20 14:03:00,
2013-08-20 09:08:00,73.9,72.1,30.09,SE,129,1.0,8.0,94,0.00,,,0.00,meteohub,2013-08-20 14:08:00,
2013-08-20 09:13:00,73.9,71.8,30.09,ESE,122,2.0,9.0,93,0.00,,,0.00,meteohub,2013-08-20 14:13:00,
2013-08-20 09:18:00,73.9,71.8,30.10,SE,134,4.0,9.0,93,0.00,,,0.00,meteohub,2013-08-20 14:18:00,
2013-08-20 09:23:00,74.1,72.0,30.10,East,91,2.0,9.0,93,0.00,,,0.00,meteohub,2013-08-20 14:23:00,
2013-08-20 09:29:00,74.3,72.1,30.10,ESE,120,3.0,8.0,93,0.00,,,0.00,meteohub,2013-08-20 14:29:00,
2013-08-20 09:34:00,74.5,72.3,30.10,ENE,77,4.0,9.0,93,0.00,,,0.00,meteohub,2013-08-20 14:34:00,
2013-08-20 09:39:00,74.5,72.3,30.10,ESE,106,4.0,9.0,93,0.00,,,0.00,meteohub,2013-08-20 14:39:00,
2013-08-20 09:44:00,74.7,72.5,30.10,ESE,117,2.0,9.0,93,0.00,,,0.00,meteohub,2013-08-20 14:44:00,
2013-08-20 09:49:00,74.8,72.7,30.11,ESE,107,1.0,9.0,93,0.00,,,0.00,meteohub,2013-08-20 14:49:00,
2013-08-20 09:54:00,75.2,72.7,30.11,East,89,5.0,8.0,92,0.00,,,0.00,meteohub,2013-08-20 14:54:00,
2013-08-20 09:59:00,75.4,72.9,30.11,East,79,2.0,8.0,92,0.00,,,0.00,meteohub,2013-08-20 14:59:00,
2013-08-20 10:04:00,75.6,73.0,30.11,East,87,2.0,7.0,92,0.00,,,0.00,meteohub,2013-08-20 15:04:00,
2013-08-20 10:10:00,75.7,73.2,30.11,East,80,1.0,7.0,92,0.00,,,0.00,meteohub,2013-08-20 15:10:00,
2013-08-20 10:15:00,75.9,73.0,30.11,SE,131,2.0,7.0,91,0.00,,,0.00,meteohub,2013-08-20 15:15:00,
2013-08-20 10:20:00,76.3,73.4,30.11,ESE,111,2.0,6.0,91,0.00,,,0.00,meteohub,2013-08-20 15:20:00,
2013-08-20 10:25:00,76.3,73.4,30.11,ENE,67,1.0,6.0,91,0.00,,,0.00,meteohub,2013-08-20 15:25:00,
2013-08-20 10:30:00,76.3,73.4,30.11,ESE,104,0.0,6.0,91,0.00,,,0.00,meteohub,2013-08-20 15:30:00,
2013-08-20 10:35:00,76.5,73.6,30.11,SE,124,1.0,6.0,91,0.00,,,0.00,meteohub,2013-08-20 15:35:00,
2013-08-20 10:40:00,76.5,73.6,30.11,East,96,5.0,6.0,91,0.00,,,0.00,meteohub,2013-08-20 15:40:00,
2013-08-20 10:45:00,76.3,73.4,30.11,East,85,3.0,6.0,91,0.00,,,0.00,meteohub,2013-08-20 15:45:00,
2013-08-20 10:50:00,76.8,73.9,30.10,SE,141,0.0,6.0,91,0.00,,,0.00,meteohub,2013-08-20 15:50:00,
2013-08-20 10:55:00,77.4,73.9,30.11,East,88,6.0,6.0,89,0.00,,,0.00,meteohub,2013-08-20 15:55:00,
2013-08-20 11:01:00,77.5,74.1,30.11,ENE,76,2.0,7.0,89,0.00,,,0.00,meteohub,2013-08-20 16:01:00,
2013-08-20 11:06:00,77.5,74.1,30.11,East,94,0.0,7.0,89,0.00,,,0.00,meteohub,2013-08-20 16:06:00,
2013-08-20 11:11:00,77.5,73.8,30.11,SE,127,3.0,7.0,88,0.00,,,0.00,meteohub,2013-08-20 16:11:00,
2013-08-20 11:16:00,77.7,74.3,30.11,ESE,104,1.0,6.0,89,0.00,,,0.00,meteohub,2013-08-20 16:16:00,
2013-08-20 11:21:00,77.9,74.1,30.11,SW,222,0.0,6.0,88,0.00,,,0.00,meteohub,2013-08-20 16:21:00,
2013-08-20 11:26:00,78.3,74.5,30.11,East,80,2.0,3.0,88,0.00,,,0.00,meteohub,2013-08-20 16:26:00,
2013-08-20 11:31:00,78.4,74.7,30.11,ENE,64,2.0,5.0,88,0.00,,,0.00,meteohub,2013-08-20 16:31:00,
2013-08-20 11:36:00,78.6,74.8,30.10,East,100,0.0,5.0,88,0.00,,,0.00,meteohub,2013-08-20 16:36:00,
2013-08-20 11:42:00,79.3,75.6,30.10,East,100,0.0,3.0,88,0.00,,,0.00,meteohub,2013-08-20 16:42:00,
2013-08-20 11:47:00,79.9,75.4,30.10,ENE,68,1.0,4.0,86,0.00,,,0.00,meteohub,2013-08-20 16:47:00,
2013-08-20 11:52:00,80.4,76.1,30.09,East,83,2.0,4.0,87,0.00,,,0.00,meteohub,2013-08-20 16:52:00,
2013-08-20 11:57:00,80.8,75.6,30.09,ESE,116,2.0,4.0,84,0.00,,,0.00,meteohub,2013-08-20 16:57:00,
2013-08-20 12:02:00,81.0,75.7,30.09,SE,127,1.0,7.0,84,0.00,,,0.00,meteohub,2013-08-20 17:02:00,
2013-08-20 12:07:00,81.1,76.3,30.09,NE,48,3.0,7.0,85,0.00,,,0.00,meteohub,2013-08-20 17:07:00,
2013-08-20 12:12:00,81.5,75.9,30.08,ESE,118,0.0,7.0,83,0.00,,,0.00,meteohub,2013-08-20 17:12:00,
2013-08-20 12:17:00,82.0,76.3,30.08,West,262,1.0,4.0,83,0.00,,,0.00,meteohub,2013-08-20 17:17:00,
2013-08-20 12:22:00,82.8,76.6,30.08,East,97,3.0,4.0,82,0.00,,,0.00,meteohub,2013-08-20 17:22:00,
2013-08-20 12:27:00,83.1,77.4,30.08,ENE,69,0.0,5.0,83,0.00,,,0.00,meteohub,2013-08-20 17:27:00,
2013-08-20 12:32:00,83.3,76.8,30.07,ENE,58,2.0,5.0,81,0.00,,,0.00,meteohub,2013-08-20 17:32:00,
2013-08-20 12:37:00,83.5,77.4,30.08,NE,54,1.0,4.0,82,0.00,,,0.00,meteohub,2013-08-20 17:37:00,
2013-08-20 12:42:00,83.7,76.5,30.08,NE,41,3.0,5.0,79,0.00,,,0.00,meteohub,2013-08-20 17:42:00,
2013-08-20 12:47:00,83.7,76.5,30.08,ENE,69,1.0,5.0,79,0.00,,,0.00,meteohub,2013-08-20 17:47:00,
2013-08-20 12:52:00,83.8,76.3,30.07,East,95,3.0,5.0,78,0.00,,,0.00,meteohub,2013-08-20 17:52:00,
2013-08-20 12:57:00,83.8,77.0,30.07,East,94,5.0,7.0,80,0.00,,,0.00,meteohub,2013-08-20 17:57:00,
2013-08-20 13:02:00,83.8,77.0,30.07,ESE,116,3.0,7.0,80,0.00,,,0.00,meteohub,2013-08-20 18:02:00,
2013-08-20 13:07:00,83.8,76.3,30.06,East,87,6.0,7.0,78,0.00,,,0.00,meteohub,2013-08-20 18:07:00,
2013-08-20 13:12:00,83.8,76.3,30.06,ENE,70,3.0,7.0,78,0.00,,,0.00,meteohub,2013-08-20 18:12:00,
2013-08-20 13:17:00,84.0,77.2,30.06,South,172,1.0,7.0,80,0.00,,,0.00,meteohub,2013-08-20 18:17:00,
2013-08-20 13:22:00,84.7,77.2,30.06,ESE,118,1.0,7.0,78,0.00,,,0.00,meteohub,2013-08-20 18:22:00,
2013-08-20 13:27:00,84.9,76.8,30.06,NE,50,4.0,6.0,77,0.00,,,0.00,meteohub,2013-08-20 18:27:00,
2013-08-20 13:32:00,84.6,77.0,30.06,East,82,5.0,5.0,78,0.00,,,0.00,meteohub,2013-08-20 18:32:00,
2013-08-20 13:37:00,84.2,77.4,30.06,NE,54,1.0,6.0,80,0.00,,,0.00,meteohub,2013-08-20 18:37:00,
2013-08-20 13:42:00,84.6,77.4,30.06,NNE,33,0.0,6.0,79,0.00,,,0.00,meteohub,2013-08-20 18:42:00,
2013-08-20 13:47:00,84.6,77.0,30.06,East,83,0.0,6.0,78,0.00,,,0.00,meteohub,2013-08-20 18:47:00,
2013-08-20 13:52:00,84.4,76.8,30.06,ESE,122,1.0,5.0,78,0.00,,,0.00,meteohub,2013-08-20 18:52:00,
2013-08-20 13:57:00,83.8,76.3,30.06,ENE,71,2.0,4.0,78,0.00,,,0.00,meteohub,2013-08-20 18:57:00,
2013-08-20 14:02:00,83.1,75.9,30.06,ENE,64,0.0,6.0,79,0.00,,,0.00,meteohub,2013-08-20 19:02:00,
2013-08-20 14:07:00,82.9,75.7,30.06,ENE,77,1.0,6.0,79,0.00,,,0.00,meteohub,2013-08-20 19:07:00,
2013-08-20 14:12:00,82.8,76.3,30.06,East,82,0.0,6.0,81,0.00,,,0.00,meteohub,2013-08-20 19:12:00,
2013-08-20 14:17:00,82.6,76.5,30.06,East,91,1.0,7.0,82,0.00,,,0.00,meteohub,2013-08-20 19:17:00,
2013-08-20 14:22:00,82.4,76.3,30.06,ESE,120,1.0,7.0,82,0.00,,,0.00,meteohub,2013-08-20 19:22:00,
2013-08-20 14:27:00,82.6,76.1,30.06,ESE,120,5.0,7.0,81,0.00,,,0.00,meteohub,2013-08-20 19:27:00,
2013-08-20 14:32:00,82.0,74.5,30.07,East,91,3.0,7.0,78,0.00,,,0.00,meteohub,2013-08-20 19:32:00,
2013-08-20 14:37:00,80.4,72.5,30.07,ESE,123,3.0,7.0,77,0.00,,,0.00,meteohub,2013-08-20 19:37:00,
2013-08-20 14:42:00,78.6,71.2,30.07,WSW,243,4.0,11.0,78,0.00,,,0.00,meteohub,2013-08-20 19:42:00,
2013-08-20 14:47:00,77.5,71.2,30.07,SE,139,2.0,11.0,81,0.00,,,0.00,meteohub,2013-08-20 19:47:00,
2013-08-20 14:52:00,77.0,71.4,30.08,SW,214,2.0,11.0,83,0.00,,,0.00,meteohub,2013-08-20 19:52:00,
2013-08-20 14:57:00,76.3,71.4,30.07,WSW,255,0.0,9.0,85,0.00,,,0.00,meteohub,2013-08-20 19:57:00,
2013-08-20 15:02:00,75.7,71.6,30.06,South,189,2.0,9.0,87,0.00,,,0.00,meteohub,2013-08-20 20:02:00,
2013-08-20 15:07:00,75.6,71.8,30.06,SSE,155,0.0,9.0,88,0.00,,,0.00,meteohub,2013-08-20 20:07:00,
2013-08-20 15:12:00,75.4,72.0,30.06,ESE,119,0.0,4.0,89,0.00,,,0.00,meteohub,2013-08-20 20:12:00,
2013-08-20 15:17:00,75.4,72.0,30.07,ESE,106,1.0,4.0,89,0.00,,,0.00,meteohub,2013-08-20 20:17:00,
2013-08-20 15:22:00,75.2,72.1,30.08,SE,137,5.0,5.0,90,0.00,,,0.00,meteohub,2013-08-20 20:22:00,
2013-08-20 15:27:00,75.0,72.0,30.08,SE,141,0.0,5.0,90,0.00,,,0.00,meteohub,2013-08-20 20:27:00,
2013-08-20 15:32:00,75.0,72.0,30.08,South,183,4.0,5.0,90,0.00,,,0.00,meteohub,2013-08-20 20:32:00,
2013-08-20 15:37:00,75.2,72.1,30.08,ESE,121,1.0,5.0,90,0.00,,,0.00,meteohub,2013-08-20 20:37:00,
2013-08-20 15:42:00,75.0,72.0,30.08,SE,135,2.0,5.0,90,0.00,,,0.00,meteohub,2013-08-20 20:42:00,
2013-08-20 15:47:00,75.0,72.0,30.08,ESE,116,0.0,8.0,90,0.00,,,0.00,meteohub,2013-08-20 20:47:00,
2013-08-20 15:52:00,75.0,72.1,30.08,South,188,0.0,8.0,91,0.00,,,0.00,meteohub,2013-08-20 20:52:00,
2013-08-20 15:57:00,75.0,72.1,30.08,SSE,154,0.0,8.0,91,0.00,,,0.00,meteohub,2013-08-20 20:57:00,
2013-08-20 16:02:00,75.0,72.1,30.08,ESE,116,0.0,5.0,91,0.00,,,0.00,meteohub,2013-08-20 21:02:00,
2013-08-20 16:07:00,75.0,72.1,30.08,South,189,2.0,4.0,91,0.00,,,0.00,meteohub,2013-08-20 21:07:00,
2013-08-20 16:12:00,74.8,72.0,30.08,ENE,75,0.0,4.0,91,0.00,,,0.00,meteohub,2013-08-20 21:12:00,
2013-08-20 16:17:00,74.8,72.3,30.08,ESE,102,1.0,4.0,92,0.00,,,0.00,meteohub,2013-08-20 21:17:00,
2013-08-20 16:22:00,74.8,72.0,30.08,SE,133,1.0,4.0,91,0.00,,,0.00,meteohub,2013-08-20 21:22:00,
2013-08-20 16:27:00,74.7,72.1,30.08,ESE,121,1.0,7.0,92,0.00,,,0.00,meteohub,2013-08-20 21:27:00,
2013-08-20 16:32:00,74.7,72.1,30.08,SE,146,0.0,7.0,92,0.00,,,0.00,meteohub,2013-08-20 21:32:00,
2013-08-20 16:37:00,74.3,71.8,30.08,East,83,2.0,8.0,92,0.00,,,0.00,meteohub,2013-08-20 21:37:00,
2013-08-20 16:42:00,74.1,71.6,30.08,SE,139,2.0,8.0,92,0.00,,,0.00,meteohub,2013-08-20 21:42:00,
2013-08-20 16:47:00,74.1,71.6,30.08,ESE,111,1.0,8.0,92,0.00,,,0.00,meteohub,2013-08-20 21:47:00,
2013-08-20 16:52:00,73.9,71.8,30.08,SSE,147,1.0,5.0,93,0.00,,,0.00,meteohub,2013-08-20 21:52:00,
2013-08-20 16:57:00,73.9,71.8,30.08,East,82,3.0,3.0,93,0.00,,,0.00,meteohub,2013-08-20 21:57:00,
2013-08-20 17:02:00,73.9,71.8,30.08,East,101,2.0,5.0,93,0.00,,,0.00,meteohub,2013-08-20 22:02:00,
2013-08-20 17:07:00,73.9,71.8,30.07,SE,127,1.0,5.0,93,0.00,,,0.00,meteohub,2013-08-20 22:07:00,
2013-08-20 17:12:00,73.9,71.8,30.07,SE,125,1.0,5.0,93,0.00,,,0.00,meteohub,2013-08-20 22:12:00,
2013-08-20 17:17:00,73.9,71.8,30.07,ESE,121,0.0,5.0,93,0.00,,,0.00,meteohub,2013-08-20 22:17:00,
2013-08-20 17:22:00,73.9,71.8,30.06,ESE,121,1.0,4.0,93,0.00,,,0.00,meteohub,2013-08-20 22:22:00,
2013-08-20 17:27:00,73.8,71.6,30.06,ESE,122,0.0,3.0,93,0.00,,,0.00,meteohub,2013-08-20 22:27:00,
2013-08-20 17:32:00,73.8,71.6,30.05,ESE,122,1.0,1.0,93,0.00,,,0.00,meteohub,2013-08-20 22:32:00,
2013-08-20 17:37:00,73.8,72.0,30.05,ESE,122,0.0,1.0,94,0.00,,,0.00,meteohub,2013-08-20 22:37:00,
2013-08-20 17:42:00,73.8,72.0,30.05,ESE,122,0.0,1.0,94,0.00,,,0.00,meteohub,2013-08-20 22:42:00,
2013-08-20 17:47:00,73.8,72.0,30.05,ESE,122,0.0,1.0,94,0.00,,,0.00,meteohub,2013-08-20 22:47:00,
2013-08-20 17:52:00,73.6,71.8,30.05,SSW,208,2.0,2.0,94,0.00,,,0.00,meteohub,2013-08-20 22:52:00,
2013-08-20 17:57:00,73.6,71.8,30.04,West,268,1.0,3.0,94,0.00,,,0.00,meteohub,2013-08-20 22:57:00,
2013-08-20 18:02:00,73.8,72.0,30.04,West,268,0.0,3.0,94,0.00,,,0.00,meteohub,2013-08-20 23:02:00,
2013-08-20 18:07:00,73.8,72.0,30.05,West,267,0.0,3.0,94,0.00,,,0.00,meteohub,2013-08-20 23:07:00,
2013-08-20 18:12:00,73.8,72.0,30.05,West,267,0.0,3.0,94,0.00,,,0.00,meteohub,2013-08-20 23:12:00,
2013-08-20 18:17:00,73.9,72.1,30.05,West,267,0.0,3.0,94,0.00,,,0.00,meteohub,2013-08-20 23:17:00,
2013-08-20 18:22:00,74.1,72.3,30.05,West,267,0.0,1.0,94,0.00,,,0.00,meteohub,2013-08-20 23:22:00,
2013-08-20 18:27:00,74.1,72.3,30.05,SW,230,0.0,1.0,94,0.00,,,0.00,meteohub,2013-08-20 23:27:00,
2013-08-20 18:32:00,74.1,72.3,30.06,ESE,121,2.0,3.0,94,0.00,,,0.00,meteohub,2013-08-20 23:32:00,
2013-08-20 18:37:00,74.1,72.0,30.06,SE,131,1.0,6.0,93,0.00,,,0.00,meteohub,2013-08-20 23:37:00,
2013-08-20 18:42:00,74.1,72.3,30.06,ESE,114,1.0,6.0,94,0.00,,,0.00,meteohub,2013-08-20 23:42:00,
2013-08-20 18:47:00,74.1,72.3,30.06,East,93,2.0,6.0,94,0.00,,,0.00,meteohub,2013-08-20 23:47:00,
2013-08-20 18:52:00,73.9,72.1,30.06,ESE,116,2.0,5.0,94,0.00,,,0.00,meteohub,2013-08-20 23:52:00,
2013-08-20 18:57:00,73.8,72.0,30.06,East,97,3.0,9.0,94,0.00,,,0.00,meteohub,2013-08-20 23:57:00,
2013-08-20 19:02:00,73.6,71.8,30.07,SSE,149,2.0,9.0,94,0.00,,,0.00,meteohub,2013-08-21 00:02:00,
2013-08-20 19:07:00,73.4,71.6,30.06,ESE,107,2.0,9.0,94,0.00,,,0.00,meteohub,2013-08-21 00:07:00,
2013-08-20 19:12:00,73.4,71.6,30.06,ESE,112,1.0,7.0,94,0.00,,,0.00,meteohub,2013-08-21 00:12:00,
2013-08-20 19:17:00,73.2,71.4,30.06,ESE,116,2.0,6.0,94,0.00,,,0.00,meteohub,2013-08-21 00:17:00,
2013-08-20 19:22:00,73.0,71.2,30.06,East,90,3.0,7.0,94,0.00,,,0.00,meteohub,2013-08-21 00:22:00,
2013-08-20 19:28:00,72.9,71.1,30.05,East,95,5.0,8.0,94,0.00,,,0.00,meteohub,2013-08-21 00:28:00,
2013-08-20 19:33:00,72.9,71.1,30.05,East,93,3.0,8.0,94,0.00,,,0.00,meteohub,2013-08-21 00:33:00,
2013-08-20 19:38:00,72.9,71.1,30.05,East,98,1.0,7.0,94,0.00,,,0.00,meteohub,2013-08-21 00:38:00,
2013-08-20 19:43:00,72.7,71.2,30.04,East,91,3.0,7.0,95,0.00,,,0.00,meteohub,2013-08-21 00:43:00,
2013-08-20 19:48:00,72.7,71.2,30.04,ESE,102,0.0,6.0,95,0.00,,,0.00,meteohub,2013-08-21 00:48:00,
2013-08-20 19:53:00,72.7,71.2,30.04,East,96,1.0,3.0,95,0.00,,,0.00,meteohub,2013-08-21 00:53:00,
2013-08-20 19:58:00,72.7,71.2,30.04,East,97,0.0,3.0,95,0.00,,,0.00,meteohub,2013-08-21 00:58:00,
2013-08-20 20:03:00,72.7,71.2,30.04,East,96,0.0,2.0,95,0.00,,,0.00,meteohub,2013-08-21 01:03:00,
2013-08-20 20:08:00,72.7,71.2,30.05,East,97,0.0,2.0,95,0.00,,,0.00,meteohub,2013-08-21 01:08:00,
2013-08-20 20:14:00,72.7,71.2,30.05,East,97,0.0,1.0,95,0.00,,,0.00,meteohub,2013-08-21 01:14:00,
2013-08-20 20:19:00,72.7,71.2,30.05,East,97,0.0,1.0,95,0.00,,,0.00,meteohub,2013-08-21 01:19:00,
2013-08-20 20:20:00,72.5,71.1,30.05,East,97,0.0,1.0,95,0.00,,,0.00,meteohub,2013-08-21 01:20:00,
2013-08-20 20:25:00,72.5,71.1,30.05,East,97,0.0,1.0,95,0.00,,,0.00,meteohub,2013-08-21 01:25:00,
2013-08-20 20:31:00,72.5,71.1,30.05,East,97,0.0,1.0,95,0.00,,,0.00,meteohub,2013-08-21 01:31:00,
2013-08-20 20:36:00,72.5,71.1,30.06,East,97,0.0,1.0,95,0.00,,,0.00,meteohub,2013-08-21 01:36:00,
2013-08-20 20:41:00,72.5,71.1,30.06,East,97,3.0,3.0,95,0.00,,,0.00,meteohub,2013-08-21 01:41:00,
2013-08-20 20:46:00,72.5,71.1,30.06,ESE,112,2.0,5.0,95,0.00,,,0.00,meteohub,2013-08-21 01:46:00,
2013-08-20 20:51:00,72.7,71.2,30.07,ESE,118,0.0,5.0,95,0.00,,,0.00,meteohub,2013-08-21 01:51:00,
2013-08-20 20:56:00,72.7,71.2,30.07,SE,128,1.0,5.0,95,0.00,,,0.00,meteohub,2013-08-21 01:56:00,
2013-08-20 21:01:00,72.7,71.2,30.08,SE,128,0.0,5.0,95,0.00,,,0.00,meteohub,2013-08-21 02:01:00,
2013-08-20 21:06:00,72.9,71.4,30.09,East,91,3.0,3.0,95,0.00,,,0.00,meteohub,2013-08-21 02:06:00,
2013-08-20 21:12:00,72.9,71.4,30.08,ESE,109,1.0,4.0,95,0.00,,,0.00,meteohub,2013-08-21 02:12:00,
2013-08-20 21:17:00,72.9,71.4,30.09,ESE,109,2.0,4.0,95,0.00,,,0.00,meteohub,2013-08-21 02:17:00,
2013-08-20 21:22:00,72.9,71.4,30.09,East,100,1.0,4.0,95,0.00,,,0.00,meteohub,2013-08-21 02:22:00,
2013-08-20 21:27:00,72.9,71.4,30.09,East,100,2.0,3.0,95,0.00,,,0.00,meteohub,2013-08-21 02:27:00,
2013-08-20 21:32:00,72.7,71.2,30.09,ENE,67,0.0,3.0,95,0.00,,,0.00,meteohub,2013-08-21 02:32:00,
2013-08-20 21:37:00,72.7,71.2,30.09,East,93,1.0,2.0,95,0.00,,,0.00,meteohub,2013-08-21 02:37:00,
2013-08-20 21:42:00,72.7,71.2,30.10,East,86,1.0,3.0,95,0.00,,,0.00,meteohub,2013-08-21 02:42:00,
2013-08-20 21:47:00,72.7,71.2,30.10,East,85,5.0,5.0,95,0.00,,,0.00,meteohub,2013-08-21 02:47:00,
2013-08-20 21:52:00,72.7,71.2,30.11,ESE,117,3.0,6.0,95,0.00,,,0.00,meteohub,2013-08-21 02:52:00,
2013-08-20 21:57:00,72.5,71.1,30.11,East,91,0.0,7.0,95,0.00,,,0.00,meteohub,2013-08-21 02:57:00,
2013-08-20 22:02:00,72.7,71.2,30.11,ESE,109,0.0,7.0,95,0.00,,,0.00,meteohub,2013-08-21 03:02:00,
2013-08-20 22:07:00,72.7,71.2,30.11,ESE,121,0.0,7.0,95,0.00,,,0.00,meteohub,2013-08-21 03:07:00,
2013-08-20 22:12:00,72.7,71.2,30.11,SE,129,2.0,3.0,95,0.00,,,0.00,meteohub,2013-08-21 03:12:00,
2013-08-20 22:17:00,72.7,71.2,30.12,SE,131,0.0,3.0,95,0.00,,,0.00,meteohub,2013-08-21 03:17:00,
2013-08-20 22:22:00,72.7,71.2,30.12,SE,131,0.0,3.0,95,0.00,,,0.00,meteohub,2013-08-21 03:22:00,
2013-08-20 22:27:00,72.7,71.2,30.12,SE,131,0.0,3.0,95,0.00,,,0.00,meteohub,2013-08-21 03:27:00,
2013-08-20 22:32:00,72.7,71.2,30.12,SE,131,0.0,2.0,95,0.00,,,0.00,meteohub,2013-08-21 03:32:00,
2013-08-20 22:37:00,72.5,71.1,30.12,SE,131,0.0,1.0,95,0.00,,,0.00,meteohub,2013-08-21 03:37:00,
2013-08-20 22:42:00,72.5,71.1,30.12,SE,131,0.0,1.0,95,0.00,,,0.00,meteohub,2013-08-21 03:42:00,
2013-08-20 22:47:00,72.5,71.1,30.12,SE,131,0.0,1.0,95,0.00,,,0.00,meteohub,2013-08-21 03:47:00,
2013-08-20 22:52:00,72.3,70.9,30.12,SE,131,0.0,0.0,95,0.00,,,0.00,meteohub,2013-08-21 03:52:00,
2013-08-20 22:58:00,72.3,70.9,30.12,SE,131,0.0,0.0,95,0.00,,,0.00,meteohub,2013-08-21 03:58:00,
2013-08-20 23:01:00,72.3,70.9,30.12,SE,131,0.0,1.0,95,0.00,,,0.00,meteohub,2013-08-21 04:01:00,
2013-08-20 23:02:00,72.3,70.9,30.12,SE,131,0.0,1.0,95,0.00,,,0.00,meteohub,2013-08-21 04:02:00,
2013-08-20 23:04:00,72.3,70.9,30.12,SE,131,0.0,1.0,95,0.00,,,0.00,meteohub,2013-08-21 04:04:00,
2013-08-20 23:09:00,72.3,70.9,30.12,SE,131,0.0,1.0,95,0.00,,,0.00,meteohub,2013-08-21 04:09:00,
2013-08-20 23:10:00,72.1,70.7,30.12,SE,131,0.0,1.0,95,0.00,,,0.00,meteohub,2013-08-21 04:10:00,
2013-08-20 23:15:00,72.1,70.7,30.11,SE,131,0.0,0.0,95,0.00,,,0.00,meteohub,2013-08-21 04:15:00,
2013-08-20 23:20:00,72.1,70.7,30.11,SE,131,0.0,0.0,95,0.00,,,0.00,meteohub,2013-08-21 04:20:00,
2013-08-20 23:25:00,72.1,70.7,30.11,SE,131,0.0,0.0,95,0.00,,,0.00,meteohub,2013-08-21 04:25:00,
2013-08-20 23:30:00,72.1,70.7,30.11,SE,131,0.0,0.0,95,0.00,,,0.00,meteohub,2013-08-21 04:30:00,
2013-08-20 23:36:00,72.1,70.7,30.11,SE,131,0.0,0.0,95,0.00,,,0.00,meteohub,2013-08-21 04:36:00,
2013-08-20 23:41:00,72.1,70.7,30.11,SE,131,0.0,0.0,95,0.00,,,0.00,meteohub,2013-08-21 04:41:00,
2013-08-20 23:46:00,72.1,70.9,30.11,SE,131,0.0,1.0,96,0.00,,,0.00,meteohub,2013-08-21 04:46:00,
2013-08-20 23:51:00,72.1,70.7,30.11,SE,131,0.0,1.0,95,0.00,,,0.00,meteohub,2013-08-21 04:51:00,
2013-08-20 23:56:00,72.1,70.9,30.11,SE,131,0.0,2.0,96,0.00,,,0.00,meteohub,2013-08-21 04:56:00,